| time (UTC) | temp F | wind direction | speed MPH | gust MPH | rain 1hr in | rain 24hr in | rain mn in | humidity % | barometer mb |
| 20260507212926 | 54 | 148 | 0.0 | 2.0 | 0.00 | 0.00 | 0.00 | 74 | 1013.9 |
| 20260507212422 | 54 | 142 | 2.0 | 3.0 | 0.00 | 0.00 | 0.00 | 74 | 1013.7 |
| 20260507211918 | 54 | 93 | 2.0 | 4.0 | 0.00 | 0.00 | 0.00 | 73 | 1013.7 |
| 20260507211414 | 54 | 76 | 3.0 | 3.0 | 0.00 | 0.00 | 0.00 | 73 | 1013.8 |
| 20260507210910 | 54 | 133 | 2.0 | 7.0 | 0.00 | 0.00 | 0.00 | 73 | 1013.7 |
| 20260507210406 | 54 | 106 | 5.0 | 7.0 | 0.00 | 0.00 | 0.00 | 72 | 1013.6 |
| 20260507205902 | 54 | 57 | 2.0 | 4.0 | 0.00 | 0.00 | 0.00 | 72 | 1013.4 |
| 20260507205358 | 54 | 94 | 2.0 | 7.0 | 0.00 | 0.00 | 0.00 | 72 | 1013.6 |
| 20260507204854 | 54 | 87 | 1.0 | 2.0 | 0.00 | 0.00 | 0.00 | 72 | 1013.4 |
| 20260507204350 | 54 | 91 | 2.0 | 6.0 | 0.00 | 0.00 | 0.00 | 71 | 1013.5 |
| 20260507203846 | 54 | 88 | 2.0 | 6.0 | 0.00 | 0.00 | 0.00 | 71 | 1013.4 |
| 20260507203342 | 54 | 59 | 2.0 | 4.0 | 0.00 | 0.00 | 0.00 | 71 | 1013.2 |
| 20260507202838 | 54 | 81 | 2.0 | 3.0 | 0.00 | 0.00 | 0.00 | 70 | 1013.4 |
| 20260507202334 | 54 | 133 | 5.0 | 7.0 | 0.00 | 0.00 | 0.00 | 70 | 1013.2 |
| 20260507201829 | 54 | 104 | 2.0 | 2.0 | 0.00 | 0.00 | 0.00 | 70 | 1013.0 |
| 20260507201325 | 54 | 114 | 1.0 | 6.0 | 0.00 | 0.00 | 0.00 | 69 | 1013.1 |
| 20260507200821 | 54 | 121 | 6.0 | 8.0 | 0.00 | 0.00 | 0.00 | 69 | 1013.1 |
| 20260507200317 | 54 | 101 | 4.0 | 8.0 | 0.00 | 0.00 | 0.00 | 69 | 1012.9 |
| 20260507195813 | 54 | 81 | 1.0 | 8.0 | 0.00 | 0.00 | 0.00 | 69 | 1013.0 |
| 20260507195309 | 54 | 74 | 4.0 | 6.0 | 0.00 | 0.00 | 0.00 | 69 | 1013.0 |
| 20260507194806 | 54 | 104 | 4.0 | 8.0 | 0.00 | 0.00 | 0.00 | 69 | 1012.8 |
| 20260507194302 | 54 | 67 | 4.0 | 9.0 | 0.00 | 0.00 | 0.00 | 70 | 1012.9 |
| 20260507193758 | 54 | 119 | 3.0 | 7.0 | 0.00 | 0.00 | 0.00 | 70 | 1012.9 |
| 20260507193254 | 54 | 89 | 1.0 | 3.0 | 0.00 | 0.00 | 0.00 | 70 | 1012.7 |
| 20260507192749 | 54 | 81 | 3.0 | 6.0 | 0.00 | 0.00 | 0.00 | 71 | 1012.6 |
| 20260507192245 | 54 | 57 | 5.0 | 8.0 | 0.00 | 0.00 | 0.00 | 71 | 1012.4 |
| 20260507191741 | 55 | 141 | 2.0 | 6.0 | 0.00 | 0.00 | 0.00 | 72 | 1012.5 |
| 20260507191237 | 55 | 90 | 3.0 | 6.0 | 0.00 | 0.00 | 0.00 | 73 | 1012.5 |
| 20260507190733 | 55 | 45 | 3.0 | 4.0 | 0.00 | 0.00 | 0.00 | 72 | 1012.7 |
| 20260507190229 | 55 | 116 | 2.0 | 6.0 | 0.00 | 0.00 | 0.00 | 72 | 1012.5 |
| 20260507185725 | 55 | 62 | 4.0 | 8.0 | 0.00 | 0.00 | 0.00 | 72 | 1012.7 |
| 20260507185222 | 55 | 62 | 4.0 | 6.0 | 0.00 | 0.00 | 0.00 | 71 | 1012.4 |
| 20260507184717 | 55 | 104 | 2.0 | 6.0 | 0.00 | 0.00 | 0.00 | 70 | 1012.5 |
| 20260507184213 | 55 | 93 | 3.0 | 7.0 | 0.00 | 0.00 | 0.00 | 69 | 1012.6 |
| 20260507183709 | 55 | 64 | 1.0 | 3.0 | 0.00 | 0.00 | 0.00 | 68 | 1012.4 |
| 20260507183205 | 55 | 88 | 3.0 | 8.0 | 0.00 | 0.00 | 0.00 | 67 | 1012.7 |
| 20260507182701 | 55 | 75 | 3.0 | 7.0 | 0.00 | 0.00 | 0.00 | 67 | 1012.5 |
| 20260507182157 | 56 | 62 | 4.0 | 6.0 | 0.00 | 0.00 | 0.00 | 67 | 1012.7 |
| 20260507181653 | 56 | 336 | 2.0 | 7.0 | 0.00 | 0.00 | 0.00 | 67 | 1012.4 |
| 20260507181149 | 56 | 170 | 2.0 | 6.0 | 0.00 | 0.00 | 0.00 | 67 | 1012.6 |
| 20260507180645 | 56 | 74 | 5.0 | 6.0 | 0.00 | 0.00 | 0.00 | 66 | 1012.4 |
| 20260507180141 | 56 | 83 | 4.0 | 9.0 | 0.00 | 0.00 | 0.00 | 66 | 1012.4 |
| 20260507175637 | 56 | 68 | 3.0 | 8.0 | 0.00 | 0.00 | 0.00 | 66 | 1012.3 |
| 20260507175133 | 56 | 318 | 5.0 | 7.0 | 0.00 | 0.00 | 0.00 | 66 | 1012.3 |
| 20260507174629 | 56 | 44 | 4.0 | 10.0 | 0.00 | 0.00 | 0.00 | 66 | 1012.4 |
| 20260507174125 | 56 | 75 | 2.0 | 8.0 | 0.00 | 0.00 | 0.00 | 66 | 1012.5 |
| 20260507173621 | 56 | 121 | 1.0 | 8.0 | 0.00 | 0.00 | 0.00 | 65 | 1012.3 |
| 20260507173117 | 56 | 123 | 4.0 | 6.0 | 0.00 | 0.00 | 0.00 | 65 | 1012.3 |
| 20260507172613 | 56 | 93 | 4.0 | 7.0 | 0.00 | 0.00 | 0.00 | 65 | 1012.2 |
| 20260507172109 | 56 | 158 | 6.0 | 10.0 | 0.00 | 0.00 | 0.00 | 64 | 1012.3 |
| 20260507171605 | 56 | 93 | 3.0 | 10.0 | 0.00 | 0.00 | 0.00 | 65 | 1012.4 |
| 20260507171101 | 56 | 103 | 6.0 | 8.0 | 0.00 | 0.00 | 0.00 | 64 | 1012.3 |
| 20260507170557 | 56 | 119 | 6.0 | 7.0 | 0.00 | 0.00 | 0.00 | 64 | 1012.1 |
| 20260507170053 | 56 | 24 | 7.0 | 9.0 | 0.00 | 0.00 | 0.00 | 65 | 1012.2 |
| 20260507165549 | 57 | 96 | 8.0 | 11.0 | 0.00 | 0.00 | 0.00 | 64 | 1012.2 |
| 20260507165045 | 57 | 79 | 6.0 | 9.0 | 0.00 | 0.00 | 0.00 | 64 | 1012.3 |
| 20260507164541 | 56 | 85 | 6.0 | 10.0 | 0.00 | 0.00 | 0.00 | 64 | 1012.2 |
| 20260507164037 | 57 | 75 | 3.0 | 4.0 | 0.00 | 0.00 | 0.00 | 64 | 1012.2 |
| 20260507163533 | 57 | 84 | 4.0 | 8.0 | 0.00 | 0.00 | 0.00 | 64 | 1012.3 |
| 20260507163029 | 56 | 119 | 2.0 | 10.0 | 0.00 | 0.00 | 0.00 | 65 | 1012.1 |
| 20260507162525 | 56 | 71 | 5.0 | 8.0 | 0.00 | 0.00 | 0.00 | 65 | 1012.2 |
| 20260507162021 | 56 | 62 | 4.0 | 8.0 | 0.00 | 0.00 | 0.00 | 65 | 1012.3 |
| 20260507161517 | 56 | 23 | 2.0 | 3.0 | 0.00 | 0.00 | 0.00 | 64 | 1012.3 |
| 20260507161013 | 56 | 134 | 2.0 | 7.0 | 0.00 | 0.00 | 0.00 | 64 | 1012.3 |
| 20260507160509 | 56 | 95 | 4.0 | 10.0 | 0.00 | 0.00 | 0.00 | 64 | 1012.2 |
| 20260507160005 | 56 | 185 | 4.0 | 7.0 | 0.00 | 0.00 | 0.00 | 64 | 1012.5 |
| 20260507155501 | 57 | 76 | 3.0 | 8.0 | 0.00 | 0.00 | 0.00 | 63 | 1012.4 |
| 20260507154958 | 57 | 78 | 3.0 | 6.0 | 0.00 | 0.00 | 0.00 | 62 | 1012.3 |
| 20260507154454 | 57 | 117 | 6.0 | 8.0 | 0.00 | 0.00 | 0.00 | 61 | 1012.2 |
| 20260507153950 | 57 | 104 | 3.0 | 4.0 | 0.00 | 0.00 | 0.00 | 60 | 1012.1 |
| 20260507153446 | 57 | 90 | 4.0 | 7.0 | 0.00 | 0.00 | 0.00 | 60 | 1012.3 |
| 20260507152942 | 57 | 90 | 4.0 | 6.0 | 0.00 | 0.00 | 0.00 | 60 | 1012.2 |
| 20260507152438 | 57 | 100 | 3.0 | 8.0 | 0.00 | 0.00 | 0.00 | 60 | 1012.4 |
| 20260507151934 | 57 | 87 | 4.0 | 9.0 | 0.00 | 0.00 | 0.00 | 60 | 1012.5 |
| 20260507151430 | 57 | 68 | 2.0 | 8.0 | 0.00 | 0.00 | 0.00 | 60 | 1012.5 |
| 20260507150926 | 57 | 46 | 4.0 | 6.0 | 0.00 | 0.00 | 0.00 | 60 | 1012.5 |
| 20260507150422 | 58 | 98 | 6.0 | 11.0 | 0.00 | 0.00 | 0.00 | 60 | 1012.2 |
| 20260507145918 | 59 | 57 | 9.0 | 11.0 | 0.00 | 0.00 | 0.00 | 59 | 1012.3 |
| 20260507145414 | 60 | 69 | 6.0 | 8.0 | 0.00 | 0.00 | 0.00 | 57 | 1012.1 |
| 20260507144910 | 60 | 36 | 1.0 | 4.0 | 0.00 | 0.00 | 0.00 | 53 | 1012.2 |
| 20260507144406 | 58 | 163 | 0.0 | 6.0 | 0.00 | 0.00 | 0.00 | 55 | 1012.4 |
| 20260507143901 | 59 | 2 | 4.0 | 8.0 | 0.00 | 0.00 | 0.00 | 54 | 1012.4 |
| 20260507143357 | 59 | 134 | 3.0 | 7.0 | 0.00 | 0.00 | 0.00 | 55 | 1012.5 |
| 20260507142853 | 59 | 123 | 8.0 | 10.0 | 0.00 | 0.00 | 0.00 | 55 | 1012.5 |
| 20260507142349 | 59 | 95 | 6.0 | 8.0 | 0.00 | 0.00 | 0.00 | 55 | 1012.4 |
| 20260507141845 | 60 | 134 | 2.0 | 7.0 | 0.00 | 0.00 | 0.00 | 54 | 1012.3 |
| 20260507141341 | 59 | 97 | 2.0 | 6.0 | 0.00 | 0.00 | 0.00 | 55 | 1012.5 |
| 20260507140837 | 59 | 67 | 5.0 | 8.0 | 0.00 | 0.00 | 0.00 | 54 | 1012.6 |
| 20260507140333 | 59 | 88 | 4.0 | 9.0 | 0.00 | 0.00 | 0.00 | 56 | 1012.6 |
| 20260507135829 | 58 | 125 | 3.0 | 4.0 | 0.00 | 0.00 | 0.00 | 57 | 1012.8 |
| 20260507135325 | 57 | 77 | 3.0 | 6.0 | 0.00 | 0.00 | 0.00 | 58 | 1012.8 |
| 20260507134822 | 57 | 113 | 6.0 | 9.0 | 0.00 | 0.00 | 0.00 | 60 | 1012.6 |
| 20260507134317 | 57 | 97 | 4.0 | 9.0 | 0.00 | 0.00 | 0.00 | 59 | 1012.7 |
| 20260507133813 | 57 | 65 | 3.0 | 6.0 | 0.00 | 0.00 | 0.00 | 59 | 1012.8 |
| 20260507133309 | 57 | 143 | 3.0 | 8.0 | 0.00 | 0.00 | 0.00 | 60 | 1012.6 |
| 20260507132805 | 57 | 74 | 2.0 | 8.0 | 0.00 | 0.00 | 0.00 | 61 | 1012.8 |
| 20260507132301 | 56 | 126 | 2.0 | 8.0 | 0.00 | 0.00 | 0.00 | 60 | 1012.8 |
| 20260507131757 | 56 | 179 | 4.0 | 6.0 | 0.00 | 0.00 | 0.00 | 61 | 1012.7 |
| 20260507131253 | 56 | 134 | 7.0 | 10.0 | 0.00 | 0.00 | 0.00 | 60 | 1012.9 |
| 20260507130749 | 56 | 80 | 1.0 | 6.0 | 0.00 | 0.00 | 0.00 | 60 | 1012.7 |
| 20260507130245 | 56 | 138 | 2.0 | 3.0 | 0.00 | 0.00 | 0.00 | 61 | 1012.8 |
| 20260507125741 | 56 | 81 | 3.0 | 6.0 | 0.00 | 0.00 | 0.00 | 61 | 1012.9 |
| 20260507125237 | 56 | 95 | 4.0 | 7.0 | 0.00 | 0.00 | 0.00 | 61 | 1013.0 |
| 20260507124734 | 56 | 119 | 3.0 | 6.0 | 0.00 | 0.00 | 0.00 | 61 | 1012.9 |
| 20260507124230 | 55 | 104 | 2.0 | 3.0 | 0.00 | 0.00 | 0.00 | 61 | 1013.0 |
| 20260507123726 | 55 | 141 | 2.0 | 7.0 | 0.00 | 0.00 | 0.00 | 62 | 1012.8 |
| 20260507123222 | 55 | 110 | 5.0 | 6.0 | 0.00 | 0.00 | 0.00 | 62 | 1012.9 |
| 20260507122718 | 56 | 75 | 2.0 | 3.0 | 0.00 | 0.00 | 0.00 | 62 | 1012.9 |
| 20260507122214 | 56 | 65 | 0.0 | 4.0 | 0.00 | 0.00 | 0.00 | 62 | 1013.0 |
| 20260507121709 | 56 | 73 | 0.0 | 3.0 | 0.00 | 0.00 | 0.00 | 62 | 1013.0 |
| 20260507121205 | 56 | 113 | 5.0 | 7.0 | 0.00 | 0.00 | 0.00 | 61 | 1012.9 |
| 20260507120701 | 55 | 111 | 3.0 | 4.0 | 0.00 | 0.00 | 0.00 | 61 | 1013.2 |
| 20260507120157 | 56 | 112 | 5.0 | 7.0 | 0.00 | 0.00 | 0.00 | 61 | 1013.1 |
| 20260507115653 | 56 | 111 | 4.0 | 8.0 | 0.00 | 0.00 | 0.00 | 62 | 1013.0 |
| 20260507115149 | 56 | 64 | 2.0 | 6.0 | 0.00 | 0.00 | 0.00 | 63 | 1013.0 |
| 20260507114645 | 56 | 60 | 2.0 | 7.0 | 0.00 | 0.00 | 0.00 | 63 | 1013.2 |
| 20260507114141 | 55 | 102 | 2.0 | 6.0 | 0.00 | 0.00 | 0.00 | 61 | 1013.1 |
| 20260507113637 | 56 | 36 | 1.0 | 7.0 | 0.00 | 0.00 | 0.00 | 63 | 1013.0 |
| 20260507113133 | 55 | 90 | 3.0 | 6.0 | 0.00 | 0.00 | 0.00 | 63 | 1013.1 |
| 20260507112629 | 56 | 73 | 4.0 | 8.0 | 0.00 | 0.00 | 0.00 | 61 | 1013.1 |
| 20260507112125 | 56 | 129 | 5.0 | 6.0 | 0.00 | 0.00 | 0.00 | 62 | 1013.3 |
| 20260507111621 | 56 | 47 | 3.0 | 4.0 | 0.00 | 0.00 | 0.00 | 63 | 1013.2 |
| 20260507111117 | 56 | 84 | 2.0 | 3.0 | 0.00 | 0.00 | 0.00 | 64 | 1013.1 |
| 20260507110613 | 55 | 170 | 2.0 | 4.0 | 0.00 | 0.00 | 0.00 | 64 | 1013.4 |
| 20260507110109 | 55 | 83 | 2.0 | 3.0 | 0.00 | 0.00 | 0.00 | 65 | 1013.2 |
| 20260507105605 | 55 | 106 | 1.0 | 3.0 | 0.00 | 0.00 | 0.00 | 66 | 1013.1 |
| 20260507105102 | 54 | 79 | 3.0 | 7.0 | 0.00 | 0.00 | 0.00 | 66 | 1013.1 |
| 20260507104558 | 54 | 91 | 3.0 | 4.0 | 0.00 | 0.00 | 0.00 | 66 | 1013.3 |
| 20260507104054 | 54 | 168 | 2.0 | 4.0 | 0.00 | 0.00 | 0.00 | 66 | 1013.3 |
| 20260507103550 | 54 | 97 | 1.0 | 1.0 | 0.00 | 0.00 | 0.00 | 66 | 1013.2 |
| 20260507103046 | 54 | 70 | 2.0 | 6.0 | 0.00 | 0.00 | 0.00 | 66 | 1013.3 |
| 20260507102542 | 54 | 93 | 3.0 | 4.0 | 0.00 | 0.00 | 0.00 | 65 | 1013.1 |
| 20260507102038 | 54 | 82 | 4.0 | 4.0 | 0.00 | 0.00 | 0.00 | 65 | 1013.3 |
| 20260507101534 | 54 | 150 | 2.0 | 4.0 | 0.00 | 0.00 | 0.00 | 66 | 1013.4 |
| 20260507101030 | 54 | 146 | 1.0 | 4.0 | 0.00 | 0.00 | 0.00 | 66 | 1013.2 |
| 20260507100526 | 54 | 108 | 2.0 | 3.0 | 0.00 | 0.00 | 0.00 | 67 | 1013.2 |
| 20260507100022 | 54 | 100 | 1.0 | 2.0 | 0.00 | 0.00 | 0.00 | 67 | 1013.2 |
| 20260507095518 | 54 | 97 | 1.0 | 2.0 | 0.00 | 0.00 | 0.00 | 66 | 1013.3 |
| 20260507095014 | 54 | 68 | 2.0 | 6.0 | 0.00 | 0.00 | 0.00 | 66 | 1013.3 |
| 20260507094510 | 54 | 41 | 1.0 | 3.0 | 0.00 | 0.00 | 0.00 | 65 | 1013.3 |
| 20260507094006 | 54 | 165 | 1.0 | 4.0 | 0.00 | 0.00 | 0.00 | 64 | 1013.2 |
| 20260507093502 | 54 | 99 | 3.0 | 4.0 | 0.00 | 0.00 | 0.00 | 65 | 1013.0 |
| 20260507092958 | 54 | 120 | 5.0 | 6.0 | 0.00 | 0.00 | 0.00 | 65 | 1013.3 |
| 20260507092454 | 55 | 34 | 2.0 | 6.0 | 0.00 | 0.00 | 0.00 | 66 | 1013.2 |
| 20260507091950 | 56 | 132 | 0.0 | 3.0 | 0.00 | 0.00 | 0.00 | 66 | 1013.2 |
| 20260507091446 | 55 | 251 | 1.0 | 3.0 | 0.00 | 0.00 | 0.00 | 66 | 1013.1 |
| 20260507090942 | 56 | 79 | 3.0 | 7.0 | 0.00 | 0.00 | 0.00 | 65 | 1013.4 |
| 20260507090437 | 54 | 78 | 3.0 | 4.0 | 0.00 | 0.00 | 0.00 | 68 | 1013.4 |
| 20260507085933 | 56 | 139 | 3.0 | 6.0 | 0.00 | 0.00 | 0.00 | 67 | 1013.3 |
| 20260507085429 | 54 | 69 | 4.0 | 6.0 | 0.00 | 0.00 | 0.00 | 68 | 1013.2 |
| 20260507084926 | 54 | 63 | 6.0 | 6.0 | 0.00 | 0.00 | 0.00 | 68 | 1013.3 |
| 20260507084422 | 54 | 173 | 1.0 | 4.0 | 0.00 | 0.00 | 0.00 | 70 | 1013.3 |
| 20260507083918 | 54 | 72 | 1.0 | 4.0 | 0.00 | 0.00 | 0.00 | 70 | 1013.0 |
| 20260507083414 | 53 | 92 | 3.0 | 3.0 | 0.00 | 0.00 | 0.00 | 71 | 1013.1 |
| 20260507082910 | 53 | 122 | 4.0 | 8.0 | 0.00 | 0.00 | 0.00 | 72 | 1013.3 |
| 20260507082406 | 53 | 73 | 0.0 | 3.0 | 0.00 | 0.00 | 0.00 | 73 | 1013.2 |
| 20260507081902 | 53 | 55 | 3.0 | 4.0 | 0.00 | 0.00 | 0.00 | 73 | 1013.3 |
| 20260507081358 | 52 | 80 | 0.0 | 6.0 | 0.00 | 0.00 | 0.00 | 75 | 1013.3 |
| 20260507080854 | 52 | 114 | 2.0 | 4.0 | 0.00 | 0.00 | 0.00 | 74 | 1013.3 |
| 20260507080349 | 52 | 128 | 2.0 | 3.0 | 0.00 | 0.00 | 0.00 | 75 | 1013.3 |
| 20260507075845 | 52 | 81 | 1.0 | 3.0 | 0.00 | 0.00 | 0.00 | 75 | 1013.4 |
| 20260507075341 | 52 | 143 | 3.0 | 4.0 | 0.00 | 0.00 | 0.00 | 75 | 1013.2 |
| 20260507074838 | 52 | 153 | 2.0 | 8.0 | 0.00 | 0.00 | 0.00 | 75 | 1013.2 |
| 20260507074334 | 52 | 88 | 1.0 | 3.0 | 0.00 | 0.00 | 0.00 | 74 | 1013.0 |
| 20260507073830 | 53 | 53 | 3.0 | 4.0 | 0.00 | 0.00 | 0.00 | 74 | 1013.2 |
| 20260507073326 | 52 | 124 | 3.0 | 4.0 | 0.00 | 0.00 | 0.00 | 74 | 1013.0 |
| 20260507072822 | 52 | 94 | 1.0 | 1.0 | 0.00 | 0.00 | 0.00 | 75 | 1013.2 |
| 20260507072318 | 51 | 111 | 1.0 | 4.0 | 0.00 | 0.00 | 0.00 | 76 | 1013.2 |
| 20260507071814 | 51 | 61 | 3.0 | 4.0 | 0.00 | 0.00 | 0.00 | 76 | 1013.2 |
| 20260507071310 | 51 | 65 | 2.0 | 3.0 | 0.00 | 0.00 | 0.00 | 75 | 1013.1 |
| 20260507070805 | 51 | 115 | 2.0 | 3.0 | 0.00 | 0.00 | 0.00 | 76 | 1012.9 |
| 20260507070301 | 51 | 7 | 2.0 | 3.0 | 0.00 | 0.00 | 0.00 | 77 | 1013.1 |
| 20260507065757 | 50 | 44 | 1.0 | 3.0 | 0.00 | 0.00 | 0.00 | 78 | 1013.0 |
| 20260507065253 | 50 | 20 | 2.0 | 4.0 | 0.00 | 0.00 | 0.00 | 78 | 1013.2 |
| 20260507064750 | 49 | 46 | 1.0 | 3.0 | 0.00 | 0.00 | 0.00 | 79 | 1013.2 |
| 20260507064246 | 50 | 73 | 2.0 | 2.0 | 0.00 | 0.00 | 0.00 | 80 | 1013.1 |
| 20260507063742 | 49 | 38 | 2.0 | 2.0 | 0.00 | 0.00 | 0.00 | 81 | 1013.2 |
| 20260507063238 | 48 | 16 | 2.0 | 2.0 | 0.00 | 0.00 | 0.00 | 82 | 1013.1 |
| 20260507062733 | 48 | 23 | 3.0 | 3.0 | 0.00 | 0.00 | 0.00 | 82 | 1012.8 |
| 20260507062229 | 48 | 43 | 1.0 | 2.0 | 0.00 | 0.00 | 0.00 | 82 | 1013.0 |
| 20260507061725 | 48 | 78 | 1.0 | 2.0 | 0.00 | 0.00 | 0.00 | 82 | 1012.9 |
| 20260507061221 | 48 | 15 | 2.0 | 4.0 | 0.00 | 0.00 | 0.00 | 82 | 1013.0 |
| 20260507060717 | 48 | 49 | 2.0 | 2.0 | 0.00 | 0.00 | 0.00 | 82 | 1012.9 |
| 20260507060213 | 48 | 54 | 1.0 | 2.0 | 0.00 | 0.00 | 0.00 | 82 | 1012.7 |
| 20260507055709 | 48 | 31 | 2.0 | 3.0 | 0.00 | 0.00 | 0.00 | 82 | 1012.9 |
| 20260507055206 | 48 | 298 | 1.0 | 1.0 | 0.00 | 0.00 | 0.00 | 82 | 1012.8 |
| 20260507054701 | 48 | 47 | 2.0 | 2.0 | 0.00 | 0.00 | 0.00 | 82 | 1012.7 |
| 20260507054157 | 48 | 10 | 1.0 | 2.0 | 0.00 | 0.00 | 0.00 | 82 | 1012.6 |
| 20260507053653 | 48 | 53 | 1.0 | 2.0 | 0.00 | 0.00 | 0.00 | 82 | 1012.7 |
| 20260507053149 | 48 | 34 | 0.0 | 2.0 | 0.00 | 0.00 | 0.00 | 82 | 1012.5 |
| 20260507052645 | 48 | 32 | 1.0 | 2.0 | 0.00 | 0.00 | 0.00 | 82 | 1012.7 |
| 20260507052141 | 48 | 52 | 1.0 | 2.0 | 0.00 | 0.00 | 0.00 | 82 | 1012.5 |
| 20260507051637 | 48 | 35 | 3.0 | 3.0 | 0.00 | 0.00 | 0.00 | 81 | 1012.5 |
| 20260507051133 | 48 | 28 | 2.0 | 2.0 | 0.00 | 0.00 | 0.00 | 81 | 1012.5 |
| 20260507050629 | 48 | 39 | 2.0 | 3.0 | 0.00 | 0.00 | 0.00 | 81 | 1012.4 |
| 20260507050125 | 48 | 57 | 2.0 | 2.0 | 0.00 | 0.00 | 0.00 | 81 | 1012.6 |
| 20260507045621 | 48 | 35 | 2.0 | 3.0 | 0.00 | 0.00 | 0.00 | 81 | 1012.6 |
| 20260507045117 | 48 | 34 | 1.0 | 2.0 | 0.00 | 0.00 | 0.00 | 81 | 1012.3 |
| 20260507044613 | 48 | 62 | 1.0 | 3.0 | 0.00 | 0.00 | 0.00 | 81 | 1012.1 |
| 20260507044109 | 48 | 40 | 1.0 | 2.0 | 0.00 | 0.00 | 0.00 | 80 | 1012.3 |
| 20260507043605 | 48 | 54 | 2.0 | 2.0 | 0.00 | 0.00 | 0.00 | 80 | 1012.5 |
| 20260507043101 | 48 | 45 | 0.0 | 2.0 | 0.00 | 0.00 | 0.00 | 80 | 1012.4 |
| 20260507042557 | 48 | 56 | 1.0 | 1.0 | 0.00 | 0.00 | 0.00 | 80 | 1012.4 |
| 20260507042053 | 48 | 48 | 2.0 | 2.0 | 0.00 | 0.00 | 0.00 | 80 | 1012.4 |
| 20260507041549 | 48 | 48 | 1.0 | 2.0 | 0.00 | 0.00 | 0.00 | 80 | 1012.2 |
| 20260507041045 | 48 | 68 | 4.0 | 4.0 | 0.00 | 0.00 | 0.00 | 80 | 1012.5 |
| 20260507040541 | 48 | 77 | 1.0 | 4.0 | 0.00 | 0.00 | 0.00 | 80 | 1012.3 |
| 20260507040037 | 48 | 32 | 4.0 | 6.0 | 0.00 | 0.00 | 0.00 | 81 | 1012.4 |
| 20260507035533 | 48 | 62 | 4.0 | 6.0 | 0.00 | 0.00 | 0.00 | 81 | 1012.4 |
| 20260507035030 | 48 | 60 | 2.0 | 2.0 | 0.00 | 0.00 | 0.00 | 81 | 1012.4 |
| 20260507034526 | 48 | 34 | 3.0 | 4.0 | 0.00 | 0.00 | 0.00 | 82 | 1012.4 |
| 20260507034022 | 48 | 50 | 2.0 | 3.0 | 0.00 | 0.00 | 0.00 | 82 | 1012.2 |
| 20260507033518 | 48 | 3 | 2.0 | 3.0 | 0.00 | 0.00 | 0.00 | 82 | 1012.3 |
| 20260507033014 | 48 | 36 | 0.0 | 2.0 | 0.00 | 0.00 | 0.00 | 83 | 1012.3 |
| 20260507032510 | 48 | 16 | 1.0 | 4.0 | 0.00 | 0.00 | 0.00 | 83 | 1012.1 |
| 20260507032006 | 48 | 27 | 2.0 | 4.0 | 0.00 | 0.00 | 0.00 | 83 | 1012.4 |
| 20260507031502 | 48 | 38 | 4.0 | 6.0 | 0.00 | 0.00 | 0.00 | 84 | 1012.3 |
| 20260507030958 | 48 | 19 | 2.0 | 2.0 | 0.00 | 0.00 | 0.00 | 84 | 1012.1 |
| 20260507030454 | 48 | 57 | 0.0 | 2.0 | 0.00 | 0.00 | 0.00 | 84 | 1012.2 |
| 20260507025950 | 48 | 60 | 4.0 | 4.0 | 0.00 | 0.00 | 0.00 | 84 | 1012.3 |
| 20260507025446 | 49 | 62 | 0.0 | 2.0 | 0.00 | 0.00 | 0.00 | 84 | 1012.4 |
| 20260507024942 | 49 | 12 | 3.0 | 3.0 | 0.00 | 0.00 | 0.00 | 84 | 1012.1 |
| 20260507024437 | 49 | 35 | 1.0 | 2.0 | 0.00 | 0.00 | 0.00 | 84 | 1012.2 |
| 20260507023933 | 48 | 58 | 1.0 | 2.0 | 0.00 | 0.00 | 0.00 | 84 | 1011.9 |
| 20260507023429 | 48 | 68 | 1.0 | 2.0 | 0.00 | 0.00 | 0.00 | 84 | 1012.4 |
| 20260507022925 | 48 | 350 | 2.0 | 2.0 | 0.00 | 0.00 | 0.00 | 84 | 1012.2 |
| 20260507022422 | 48 | 336 | 2.0 | 3.0 | 0.00 | 0.00 | 0.00 | 84 | 1012.2 |
| 20260507021917 | 48 | 295 | 0.0 | 2.0 | 0.00 | 0.00 | 0.00 | 84 | 1011.9 |
| 20260507021413 | 48 | 343 | 1.0 | 3.0 | 0.00 | 0.00 | 0.00 | 85 | 1012.1 |
| 20260507020909 | 48 | 310 | 1.0 | 1.0 | 0.00 | 0.00 | 0.00 | 85 | 1012.0 |
| 20260507020405 | 48 | 319 | 0.0 | 1.0 | 0.00 | 0.00 | 0.00 | 85 | 1011.8 |
| 20260507015901 | 48 | 46 | 1.0 | 1.0 | 0.00 | 0.00 | 0.00 | 84 | 1011.9 |
| 20260507015357 | 48 | 64 | 0.0 | 0.0 | 0.00 | 0.00 | 0.00 | 84 | 1011.9 |
| 20260507014853 | 48 | 38 | 1.0 | 1.0 | 0.00 | 0.00 | 0.00 | 84 | 1011.9 |
| 20260507014349 | 48 | 348 | 1.0 | 2.0 | 0.00 | 0.00 | 0.00 | 84 | 1012.0 |
| 20260507013845 | 48 | 260 | 0.0 | 1.0 | 0.00 | 0.00 | 0.00 | 84 | 1012.0 |
| 20260507013341 | 48 | 0 | 0.0 | 1.0 | 0.00 | 0.00 | 0.00 | 84 | 1011.9 |
| 20260507012837 | 48 | 172 | 0.0 | 1.0 | 0.00 | 0.00 | 0.00 | 84 | 1012.0 |
| 20260507012333 | 48 | 274 | 0.0 | 1.0 | 0.00 | 0.00 | 0.00 | 84 | 1011.9 |
| 20260507011829 | 48 | 283 | 1.0 | 2.0 | 0.00 | 0.00 | 0.00 | 84 | 1011.8 |
| 20260507011325 | 48 | 290 | 0.0 | 1.0 | 0.00 | 0.00 | 0.00 | 84 | 1012.0 |
| 20260507010821 | 48 | 295 | 1.0 | 2.0 | 0.00 | 0.00 | 0.00 | 84 | 1011.9 |
| 20260507010317 | 48 | 279 | 0.0 | 2.0 | 0.00 | 0.00 | 0.00 | 84 | 1011.9 |
| 20260507005813 | 48 | 247 | 0.0 | 1.0 | 0.00 | 0.00 | 0.00 | 84 | 1012.0 |
| 20260507005309 | 48 | 55 | 0.0 | 1.0 | 0.00 | 0.00 | 0.00 | 84 | 1012.0 |
| 20260507004805 | 49 | 17 | 2.0 | 3.0 | 0.00 | 0.00 | 0.00 | 83 | 1011.9 |
| 20260507004301 | 49 | 268 | 0.0 | 1.0 | 0.00 | 0.00 | 0.00 | 83 | 1012.0 |
| 20260507003757 | 48 | 335 | 1.0 | 2.0 | 0.00 | 0.00 | 0.00 | 83 | 1012.2 |
| 20260507003253 | 48 | 303 | 1.0 | 2.0 | 0.00 | 0.00 | 0.00 | 83 | 1012.1 |
| 20260507002749 | 48 | 318 | 0.0 | 2.0 | 0.00 | 0.00 | 0.00 | 83 | 1011.9 |
| 20260507002245 | 49 | 356 | 0.0 | 1.0 | 0.00 | 0.00 | 0.00 | 83 | 1012.0 |
| 20260507001741 | 49 | 40 | 0.0 | 2.0 | 0.00 | 0.00 | 0.00 | 83 | 1012.1 |
| 20260507001237 | 49 | 282 | 1.0 | 2.0 | 0.00 | 0.00 | 0.00 | 83 | 1011.9 |
| 20260507000733 | 48 | 276 | 1.0 | 2.0 | 0.00 | 0.00 | 0.00 | 83 | 1012.0 |
| 20260507000229 | 49 | 277 | 1.0 | 1.0 | 0.00 | 0.00 | 0.00 | 83 | 1012.1 |
| 20260506235725 | 49 | 86 | 0.0 | 2.0 | 0.00 | 0.00 | 0.00 | 83 | 1012.0 |
| 20260506235221 | 49 | 292 | 0.0 | 1.0 | 0.00 | 0.00 | 0.00 | 83 | 1011.8 |
| 20260506234718 | 49 | 342 | 0.0 | 1.0 | 0.00 | 0.00 | 0.00 | 83 | 1011.9 |
| 20260506234214 | 49 | 326 | 0.0 | 2.0 | 0.00 | 0.00 | 0.00 | 82 | 1012.0 |
| 20260506233710 | 49 | 345 | 0.0 | 1.0 | 0.00 | 0.00 | 0.00 | 82 | 1011.8 |
| 20260506233206 | 49 | 274 | 0.0 | 1.0 | 0.00 | 0.00 | 0.00 | 82 | 1012.0 |
| 20260506232702 | 49 | 293 | 0.0 | 1.0 | 0.00 | 0.00 | 0.00 | 82 | 1011.8 |
| 20260506232158 | 49 | 277 | 0.0 | 1.0 | 0.00 | 0.00 | 0.00 | 82 | 1011.9 |
| 20260506231654 | 49 | 271 | 0.0 | 1.0 | 0.00 | 0.00 | 0.00 | 82 | 1011.7 |
| 20260506231150 | 49 | 318 | 1.0 | 2.0 | 0.00 | 0.00 | 0.00 | 82 | 1011.8 |
| 20260506230646 | 49 | 5 | 2.0 | 2.0 | 0.00 | 0.00 | 0.00 | 82 | 1011.8 |
| 20260506230142 | 49 | 338 | 1.0 | 2.0 | 0.00 | 0.00 | 0.00 | 81 | 1011.9 |
| 20260506225638 | 49 | 31 | 2.0 | 2.0 | 0.00 | 0.00 | 0.00 | 81 | 1011.9 |
| 20260506225133 | 49 | 355 | 0.0 | 2.0 | 0.00 | 0.00 | 0.00 | 81 | 1012.0 |
| 20260506224629 | 49 | 270 | 0.0 | 1.0 | 0.00 | 0.00 | 0.00 | 80 | 1012.0 |
| 20260506224125 | 49 | 287 | 0.0 | 0.0 | 0.00 | 0.00 | 0.00 | 80 | 1011.6 |
| 20260506223621 | 49 | 312 | 1.0 | 1.0 | 0.00 | 0.00 | 0.00 | 80 | 1011.7 |
| 20260506223117 | 49 | 44 | 2.0 | 4.0 | 0.00 | 0.00 | 0.00 | 80 | 1011.7 |
| 20260506222613 | 49 | 303 | 1.0 | 6.0 | 0.00 | 0.00 | 0.00 | 80 | 1011.7 |
| 20260506222109 | 49 | 266 | 0.0 | 2.0 | 0.00 | 0.00 | 0.00 | 80 | 1011.8 |
| 20260506221605 | 49 | 264 | 2.0 | 3.0 | 0.00 | 0.00 | 0.00 | 80 | 1011.7 |
| 20260506221101 | 49 | 290 | 2.0 | 4.0 | 0.00 | 0.00 | 0.00 | 79 | 1011.6 |
| 20260506220557 | 49 | 293 | 1.0 | 3.0 | 0.00 | 0.00 | 0.00 | 79 | 1011.9 |
| 20260506220053 | 49 | 35 | 0.0 | 2.0 | 0.00 | 0.00 | 0.00 | 79 | 1011.8 |
| 20260506215549 | 49 | 309 | 1.0 | 3.0 | 0.00 | 0.00 | 0.00 | 79 | 1011.5 |
| 20260506215045 | 50 | 306 | 3.0 | 6.0 | 0.00 | 0.00 | 0.00 | 78 | 1011.6 |
| 20260506214542 | 50 | 21 | 4.0 | 6.0 | 0.00 | 0.00 | 0.00 | 78 | 1011.6 |
| 20260506214037 | 50 | 210 | 1.0 | 2.0 | 0.00 | 0.00 | 0.00 | 77 | 1011.6 |
| 20260506213533 | 50 | 339 | 2.0 | 3.0 | 0.00 | 0.00 | 0.00 | 77 | 1011.5 |